[[{"header":{"parameterUnit":"m.s-1","parameterCategory":1,"la1":30.2991,"la2":30.254,"lo1":-89.0895,"lo2":-89.0444,"dy":0.0017,"dx":0.0017,"nx":28,"ny":28,"refTime":"2025-05-15T03:00:00:Z","depth":0,"parameterNumber":2,"parameterNumberName":"U-component_of_WINDS"},"data":[0,0,0,0,0,0,0,0,0,0,0,0,0,0,0,0,0,0,0,0,0,0,0,0,0,0,0,0,0,0,0,0,0,0,0,0,0,0,0,0,0,0,0,0,0,0,0,0,0,0,0,0,0,0,0,0,0,0,2.441,2.4411,0,2.4532,2.4533,2.4534,2.453,2.4528,2.4526,2.4525,2.4648,2.4653,2.4658,0,0,0,0,0,0,0,0,0,0,0,0,0,2.4169,2.4174,2.4409,2.4411,2.4413,2.4531,2.4533,2.4535,2.453,2.4528,2.4526,2.4524,2.4647,2.4653,2.4658,0,0,0,0,0,0,0,0,0,0,0,0,0,2.4281,2.4175,2.4409,2.4425,2.4427,2.4531,2.4533,2.4535,2.4531,2.4528,2.4525,2.4523,2.4645,2.4652,2.4659,2.4755,0,0,2.4682,2.4685,0,0,0,0,0,0,0,0,2.4274,2.4289,2.4421,2.4424,2.4427,2.4513,2.4494,2.4609,2.4531,2.4491,2.4525,2.4522,2.4605,2.4616,2.4644,2.4761,2.4766,2.4682,2.4687,2.469,2.4692,0,0,0,0,0,0,0,2.4266,2.4284,2.4458,2.4423,2.4426,2.4424,2.4437,2.4515,2.4561,2.4495,2.4495,2.4509,2.4606,2.4637,2.4647,2.4768,2.4682,2.4688,2.4693,2.4696,2.4967,2.497,0,0,0,0,0,0,2.4256,2.4278,2.4454,2.4461,2.4343,2.4431,2.4445,2.4488,2.456,2.4569,2.4511,2.4508,2.4626,2.4638,2.4651,2.4767,2.469,2.4697,2.4701,2.4964,2.4968,2.4971,0,0,0,0,0,0,2.4251,2.4272,2.4449,2.437,2.4392,2.4438,2.4485,2.4492,2.4522,2.4573,2.4581,2.4534,2.4624,2.4641,2.4729,2.4771,2.47,2.4706,2.4961,2.4965,2.4969,2.4999,0,0,0,0,0,0,2.4244,2.427,2.4308,2.4371,2.4396,2.4526,2.4488,2.4496,2.4535,2.4533,2.4597,2.4605,2.4624,2.4718,2.4736,2.478,2.4712,2.4957,2.4963,2.4968,2.4995,2.5004,2.5012,0,0,0,0,0,2.4235,2.4312,2.431,2.4331,2.4445,2.4528,2.4543,2.4563,2.4539,2.4576,2.4608,2.4603,2.4764,2.4727,2.4747,2.4794,2.4955,2.4961,2.4967,2.4991,2.5002,2.5012,0,0,0,0,0,0,2.4252,2.432,2.4319,2.4418,2.4467,2.4527,2.4576,2.4575,2.4632,2.4628,2.465,2.4665,2.4752,2.4782,2.474,2.4889,2.4856,2.4867,2.4867,2.4878,2.4886,2.4877,2.4718,0,0,0,0,0,2.4268,2.4331,2.4386,2.4468,2.4493,2.453,2.4567,2.4579,2.463,2.4651,2.469,2.474,2.4801,2.4841,2.4901,2.4999,2.5012,2.5041,2.5049,2.5056,2.5065,2.5117,2.513,2.4992,2.4991,2.4991,0,0,2.43,2.4345,2.4383,2.4473,2.4512,2.4575,2.4548,2.4616,2.4663,2.4661,2.4746,2.4776,2.4833,2.4926,2.4969,2.4953,2.5106,2.5064,2.5069,2.5075,2.5124,2.5137,2.5149,2.4996,2.4995,2.4994,0,0,2.4391,2.4432,2.4504,2.4544,2.4604,2.4628,2.4645,2.4705,2.4724,2.481,2.481,2.4865,2.4971,2.5011,2.5045,2.5149,2.5145,2.5168,2.5212,2.5262,2.5273,2.5283,2.5318,2.5331,2.5176,2.5176,2.5176,0,2.4424,2.452,2.4541,2.461,2.4648,2.4649,2.4721,2.4758,2.4835,2.4861,2.4842,2.4974,2.5013,2.5114,2.5139,2.5167,2.5186,2.516,2.527,2.528,2.5289,2.5323,2.5336,2.5179,2.5178,2.5178,2.5178,0,2.4556,2.4622,2.4673,2.4746,2.479,2.486,2.489,2.4932,2.4939,2.4964,2.505,2.5096,2.5164,2.5189,2.5197,2.5291,2.5279,2.5265,2.5232,2.5304,2.5336,2.535,2.5182,2.5181,2.518,2.518,0,0,2.4662,2.4745,2.4763,2.4795,2.4861,2.4912,2.4981,2.5047,2.5082,2.5134,2.5191,2.528,2.5267,2.5305,2.5318,2.5362,2.5438,2.5342,2.5344,2.5357,2.5542,2.5551,2.5565,2.5436,2.5439,2.5441,2.5536,0,2.4758,2.4881,2.4901,2.5009,2.5069,2.507,2.513,2.5176,2.5201,2.5254,2.5282,2.5343,2.5323,2.5346,2.539,2.542,2.5475,2.5413,2.5488,2.549,2.5473,2.5582,2.5593,2.568,2.5549,2.5551,2.5553,0,2.4888,2.4943,2.5056,2.5112,2.5138,2.5191,2.5252,2.5305,2.5356,2.537,2.5413,2.5419,2.5489,2.5452,2.5548,2.5505,2.5536,2.5556,2.556,2.5566,2.5525,2.5591,2.5709,2.5722,2.5573,2.5571,2.557,0,2.4951,2.5054,2.5135,2.5162,2.523,2.5267,2.5296,2.5345,2.5383,2.5436,2.546,2.5521,2.5554,2.56,2.5621,2.5594,2.5714,2.5681,2.5727,2.5727,2.5752,2.575,2.5876,2.5775,2.5774,2.5774,2.5774,0,2.5056,2.5125,2.5164,2.5213,2.529,2.5311,2.5386,2.5414,2.5457,2.5511,2.5515,2.5565,2.5592,2.5645,2.5663,2.5738,2.5753,2.5765,2.5769,2.5765,2.5763,2.5785,2.5779,2.5778,2.5777,2.5776,2.5776,0,2.514,2.5169,2.5257,2.5313,2.5328,2.5382,2.5429,2.5476,2.55,2.5568,2.5585,2.5622,2.5685,2.5712,2.5789,2.5801,2.5886,2.5886,2.5869,2.587,2.5914,2.5908,2.6057,2.6077,2.5964,2.5965,2.5966,0,2.5205,2.5258,2.5319,2.5356,2.5386,2.5445,2.5483,2.5506,2.5545,2.5606,2.5645,2.5708,2.576,2.586,2.5894,2.5952,2.5952,2.6,2.5961,2.5954,2.5951,2.5947,2.5951,2.6007,2.6008,2.6009,2.601,0,2.5316,2.5327,2.5383,2.5443,2.5488,2.5537,2.5584,2.5613,2.5642,2.5686,2.5751,2.5791,2.5869,2.5931,2.5991,2.602,2.6019,2.6022,2.6036,2.6031,2.6018,2.6023,2.5887,2.6018,2.6018,2.6017,2.6017,2.6016,2.5391,2.5437,2.5487,2.5548,2.5586,2.5629,2.5675,2.5705,2.5759,2.5825,2.5835,2.5903,2.595,2.6031,2.6062,2.6115,2.6102,2.6123,2.6127,2.6132,2.6133,2.601,2.6126,2.6126,2.6126,2.6125,2.6125,0,2.55,2.5532,2.5588,2.5654,2.5701,2.5697,2.5748,2.5788,2.5848,2.5893,2.5943,2.6015,2.6075,2.6112,2.6172,2.6206,2.6207,2.6221,2.6218,2.6224,2.6142,2.6124,2.6219,2.6219,2.6219,2.6219,2.6219,2.6219,2.5563,2.564,2.5657,2.5752,2.5783,2.585,2.5879,2.5919,2.5954,2.6035,2.6085,2.6109,2.615,2.6212,2.6265,2.6275,2.6295,2.631,2.6318,2.624,2.623,2.6221,2.6204,2.6315,2.6315,2.6395,2.6396,2.6397]},{"header":{"parameterUnit":"m.s-1","parameterCategory":1,"la1":30.2991,"la2":30.254,"lo1":-89.0895,"lo2":-89.0444,"dy":0.0017,"dx":0.0017,"nx":28,"ny":28,"refTime":"2025-05-15T03:00:00:Z","depth":0,"parameterNumber":3,"parameterNumberName":"V-component_of_WINDS"},"data":[0,0,0,0,0,0,0,0,0,0,0,0,0,0,0,0,0,0,0,0,0,0,0,0,0,0,0,0,0,0,0,0,0,0,0,0,0,0,0,0,0,0,0,0,0,0,0,0,0,0,0,0,0,0,0,0,0,0,6.7682,6.7683,0,6.7773,6.7774,6.7775,6.772,6.7717,6.7715,6.7712,6.7799,6.7803,6.7808,0,0,0,0,0,0,0,0,0,0,0,0,0,6.745,6.7455,6.7681,6.7683,6.7684,6.7773,6.7774,6.7776,6.772,6.7717,6.7714,6.7711,6.7797,6.7803,6.7808,0,0,0,0,0,0,0,0,0,0,0,0,0,6.7547,6.7456,6.7681,6.7667,6.7667,6.7773,6.7774,6.7776,6.7721,6.7717,6.7713,6.7709,6.7795,6.7802,6.7809,6.7932,0,0,6.7831,6.7834,0,0,0,0,0,0,0,0,6.7541,6.7555,6.7668,6.7668,6.7668,6.7731,6.7724,6.7828,6.7722,6.77,6.7712,6.7707,6.7779,6.7787,6.7813,6.7936,6.794,6.7832,6.7836,6.7839,6.7841,0,0,0,0,0,0,0,6.7535,6.7551,6.7718,6.767,6.767,6.7653,6.7663,6.7744,6.776,6.7702,6.7698,6.771,6.7778,6.7806,6.7814,6.7941,6.7831,6.7838,6.7842,6.7845,6.8168,6.8173,0,0,0,0,0,0,6.753,6.7546,6.7715,6.772,6.7594,6.7661,6.7671,6.7715,6.7759,6.7762,6.7713,6.7707,6.7796,6.7806,6.7817,6.7964,6.7839,6.7846,6.785,6.8164,6.8169,6.8174,0,0,0,0,0,0,6.7526,6.7546,6.7711,6.7632,6.7652,6.7669,6.7718,6.7719,6.7747,6.7768,6.777,6.774,6.7793,6.7807,6.7904,6.7966,6.7849,6.7855,6.8159,6.8166,6.8172,6.8258,0,0,0,0,0,0,6.7519,6.7545,6.7594,6.7634,6.7657,6.7799,6.7722,6.7723,6.776,6.7753,6.7793,6.7796,6.7791,6.7894,6.7911,6.7974,6.7861,6.8154,6.8162,6.817,6.825,6.8267,6.8281,0,0,0,0,0,6.7511,6.7613,6.7596,6.7617,6.7719,6.7803,6.7816,6.781,6.7765,6.7813,6.7827,6.7795,6.7956,6.7904,6.7923,6.7989,6.815,6.816,6.8169,6.8243,6.8263,6.8281,0,0,0,0,0,0,6.7576,6.7618,6.76,6.7718,6.7758,6.7794,6.7854,6.7832,6.7883,6.7874,6.7863,6.7872,6.7974,6.799,6.7932,6.8109,6.8046,6.806,6.8095,6.8115,6.813,6.8124,6.7867,0,0,0,0,0,6.7605,6.7673,6.7704,6.7805,6.7826,6.7837,6.7873,6.7866,6.7905,6.7921,6.7942,6.7979,6.8038,6.8077,6.8133,6.8252,6.8259,6.8306,6.8321,6.8334,6.8347,6.841,6.8431,6.8206,6.8206,6.8206,0,0,6.7664,6.7695,6.7738,6.7819,6.7849,6.7917,6.7851,6.7926,6.7976,6.7931,6.8025,6.8042,6.8082,6.8191,6.8239,6.8208,6.841,6.8347,6.8357,6.8362,6.8422,6.8443,6.8462,6.8213,6.8211,6.821,0,0,6.7807,6.7838,6.7925,6.7957,6.8004,6.801,6.8031,6.807,6.808,6.8174,6.8143,6.8199,6.8302,6.8332,6.8361,6.8514,6.8486,6.8532,6.8614,6.8676,6.8694,6.8709,6.8764,6.8783,6.8544,6.8545,6.8545,0,6.7873,6.7978,6.7972,6.805,6.8086,6.8051,6.8139,6.8168,6.823,6.8254,6.8218,6.8346,6.8371,6.8486,6.8523,6.8548,6.857,6.8528,6.8692,6.8708,6.8722,6.8774,6.8794,6.855,6.8549,6.8549,6.8548,0,6.8057,6.813,6.8194,6.8258,6.83,6.8382,6.8387,6.843,6.8418,6.8428,6.8523,6.8552,6.8612,6.8639,6.8627,6.8752,6.8731,6.8694,6.8629,6.8749,6.8797,6.8817,6.8558,6.8556,6.8554,6.8553,0,0,6.8244,6.8304,6.8328,6.8356,6.8404,6.8459,6.8538,6.86,6.8637,6.8679,6.8745,6.8832,6.8798,6.8831,6.8822,6.8876,6.8995,6.8832,6.8833,6.8861,6.9133,6.916,6.9184,6.8976,6.898,6.8983,6.9129,0,6.839,6.8532,6.8529,6.866,6.8726,6.8693,6.8761,6.8797,6.8808,6.8863,6.8872,6.8935,6.8886,6.8905,6.8958,6.897,6.9049,6.8959,6.9035,6.9038,6.9027,6.9209,6.9239,6.9375,6.9148,6.9151,6.9154,0,6.8579,6.8632,6.877,6.8809,6.8836,6.8898,6.8954,6.9008,6.9047,6.905,6.9087,6.9069,6.9147,6.908,6.9186,6.9125,6.9155,6.9165,6.917,6.9177,6.9103,6.9221,6.9419,6.9439,6.9183,6.9181,6.9179,0,6.8702,6.8806,6.8903,6.8927,6.8975,6.9019,6.9041,6.9076,6.9113,6.916,6.9184,6.9239,6.9269,6.9311,6.9307,6.9259,6.9414,6.9348,6.9418,6.9418,6.9452,6.945,6.9658,6.9472,6.9472,6.9471,6.9471,0,6.8865,6.8951,6.8959,6.9018,6.9112,6.9106,6.9198,6.9214,6.9246,6.9306,6.9279,6.9335,6.9328,6.9383,6.938,6.9468,6.9481,6.9485,6.9483,6.9487,6.9487,6.9507,6.9498,6.9477,6.9475,6.9474,6.9473,0,6.9019,6.9027,6.913,6.9167,6.9178,6.9246,6.9276,6.9331,6.9339,6.9414,6.9432,6.9443,6.9507,6.9508,6.958,6.9578,6.9685,6.9672,6.9673,6.967,6.9741,6.9734,6.9969,6.9999,6.9793,6.9795,6.9797,0,6.9123,6.9188,6.9233,6.9273,6.9298,6.9361,6.9399,6.9395,6.9435,6.9484,6.9532,6.9594,6.9643,6.9746,6.9759,6.9814,6.9802,6.9881,6.981,6.9812,6.9803,6.98,6.9805,6.9895,6.9897,6.9899,6.99,0,6.9306,6.9307,6.9365,6.9425,6.9472,6.9517,6.9559,6.9592,6.9592,6.9638,6.9704,6.9743,6.9817,6.9878,6.9931,6.9949,6.9925,6.9922,6.9941,6.9947,6.9945,6.9947,6.9711,6.9917,6.9915,6.9914,6.9913,6.9913,6.9438,6.9495,6.9536,6.96,6.9632,6.9672,6.9725,6.974,6.9797,6.9859,6.9852,6.9925,6.996,7.0029,7.0052,7.0107,7.008,7.0107,7.0114,7.0122,7.0129,6.9936,7.0117,7.0116,7.0116,7.0115,7.0115,0,6.962,6.9645,6.9705,6.9766,6.9816,6.9791,6.9835,6.9878,6.9945,6.9981,7.003,7.0105,7.0164,7.0182,7.0238,7.0279,7.0269,7.0294,7.0291,7.0295,7.0151,7.0129,7.0301,7.0301,7.0301,7.0301,7.0301,7.0301,6.9721,6.9816,6.9822,6.993,6.9953,7.0028,7.0055,7.0091,7.012,7.0206,7.0256,7.0268,7.0296,7.0354,7.0406,7.0409,7.0431,7.0461,7.046,7.0324,7.0306,7.0288,7.0267,7.0466,7.0466,7.0599,7.0601,7.0601]}]]